sat.trackr.live / text

‹ back to catalog

YAOGAN-34 01

NORAD 48340 · 2021-037A

PAYLOAD ACTIVE UNKNOWN

§ Identity

Operator
Country
PRC
Launch date
2021-04-30
Launch site
JSC
Launch vehicle
Mass (kg)
RCS (m²)

External: N2YO · Heavens-Above · Gunter

§ Orbital elements

Epoch: 2026-09-21T23:17:53.079936Z

Period
107.03 min
Inclination
63.4018°
Eccentricity
0.0049060
Mean motion
13.45437671 rev/d
Perigee alt
1,052.5 km
Apogee alt
1,125.7 km
Semi-major
7,467.2 km
B*
1.4133e-4
RAAN
257.7944°
Arg perigee
353.2857°
Mean anomaly
6.7507°
Rev number
26,502

§ Raw data

YAOGAN-34 011 48340U 21037A   26264.97075324 -.00000006  00000+0  14133-3 0  99902 48340  63.4018 257.7944 0049060 353.2857   6.7507 13.45437671265024

JSON: /api/v1/satellites/48340 · /tle

For live sub-satellite position, see the globe view (requires WebGL).

§ Visibility from observer

Set your observer location to see the next 7 days of passes ≥ 10°. The values pass through the URL so the page stays shareable.

No JS? Fill the form by hand. The geolocation button needs JavaScript.